Kansai Intl current weather conditions

sailwx.info

Wind from 330 at 10 knots

Air temperature 4.0° C
Visibility: greater than 5.4 NM
Dewpoint -5.0° C

Last reported at 2014-Dec-18 11:30 UTC.
Time now 2014-Dec-18 13:28 UTC

Location: N 34°26' E 135°15'.
View on Google Maps.

See reports from other nearby stations

  
Tides and Currents Weather Stations Pressure Air Temp Water Temp Dewpoint Dewpoint Depression Visibility Wind Speed Wind Dir Waves Ship Positions
date/time (UTC)wind fromknots sea level pressurealtimeterstation pressurevisibilityair tempwater tempwave heightnotes
2014-Dec-18 12:30 340 9 5.4 4.0
2014-Dec-18 12:00 340 10 5.4 4.0
2014-Dec-18 11:30 330 10 5.4 4.0
2014-Dec-18 11:00 340 9 5.4 4.0
2014-Dec-18 10:30 330 9 5.4 4.0
2014-Dec-18 10:00 340 10 5.4 4.0
2014-Dec-18 09:30 330 11 5.4 4.0
2014-Dec-18 09:00 330 10 5.4 4.0
2014-Dec-18 08:30 340 11 5.4 5.0
2014-Dec-18 08:00 330 11 5.4 5.0
2014-Dec-18 07:30 320 13 gusting 23 5.4 5.0
2014-Dec-18 07:00 310 15 5.4 5.0
2014-Dec-18 06:30 320 15 5.4 5.0
2014-Dec-18 06:00 310 18 5.4 6.0
2014-Dec-18 05:37 290 15 gusting 25 5.4 5.0 Light snow showers.
2014-Dec-18 05:30 280 14 5.4 5.0 Light snow showers.
2014-Dec-18 05:00 310 10 5.4 4.0 Light snow showers.
2014-Dec-18 04:30 310 15 5.4 4.0 Light snow showers.
2014-Dec-18 04:00 290 16 5.4 5.0 Light snow showers.
2014-Dec-18 03:30 300 16 5.4 5.0 Light snow showers.
2014-Dec-18 03:00 300 18 5.4 5.0 Showers in the vicinity.
2014-Dec-18 02:30 290 17 5.4 5.0
2014-Dec-18 02:00 300 18 5.4 4.0
2014-Dec-18 01:30 300 20 5.4 5.0 Showers in the vicinity.
2014-Dec-18 01:00 300 20 5.4 4.0 Light snow showers.
2014-Dec-18 00:30 290 19 5.4 4.0 Light snow showers.
2014-Dec-18 00:00 290 18 5.4 3.0 Light snow showers.
2014-Dec-17 23:30 290 20 5.4 3.0
2014-Dec-17 23:00 290 19 5.4 3.0
2014-Dec-17 22:30 290 19 5.4 3.0
2014-Dec-17 22:00 290 18 gusting 29 5.4 2.0
2014-Dec-17 21:30 290 18 5.4 2.0
2014-Dec-17 21:22 300 19 gusting 29 5.4 2.0
2014-Dec-17 21:00 290 23 5.4 2.0
2014-Dec-17 20:31 300 24 gusting 34 5.4 2.0
2014-Dec-17 20:30 300 25 5.4 2.0
2014-Dec-17 20:01 300 23 gusting 33 5.4 2.0
2014-Dec-17 20:00 300 22 5.4 2.0
2014-Dec-17 19:46 300 24 gusting 34 5.4 2.0
2014-Dec-17 19:30 300 23 5.4 2.0
2014-Dec-17 19:16 290 24 gusting 34 5.4 2.0
2014-Dec-17 19:00 290 25 5.4 2.0
2014-Dec-17 18:35 290 23 gusting 33 5.4 2.0
2014-Dec-17 18:30 290 24 5.4 2.0
2014-Dec-17 18:05 290 20 gusting 31 5.4 2.0
2014-Dec-17 18:00 290 22 5.4 2.0
2014-Dec-17 17:30 290 23 gusting 34 5.4 2.0
2014-Dec-17 17:00 290 23 gusting 34 5.4 2.0
2014-Dec-17 16:32 290 24 gusting 34 5.4 2.0
2014-Dec-17 16:30 300 25 5.4 2.0
2014-Dec-17 16:00 290 24 gusting 34 5.4 2.0
2014-Dec-17 15:31 290 25 gusting 36 5.4 2.0
2014-Dec-17 15:30 290 25 5.4 2.0
2014-Dec-17 15:00 290 25 gusting 35 5.4 2.0
2014-Dec-17 14:30 290 27 gusting 37 5.4 2.0
2014-Dec-17 14:14 290 25 gusting 35 5.4 2.0
2014-Dec-17 14:00 290 22 5.4 2.0
2014-Dec-17 13:44 290 25 gusting 36 5.4 2.0
2014-Dec-17 13:30 290 25 5.4 2.0
2014-Dec-17 13:00 290 24 gusting 34 5.4 2.0
2014-Dec-17 12:38 290 24 gusting 34 5.4 2.0
2014-Dec-17 12:30 290 22 5.4 2.0
2014-Dec-17 12:00 280 26 gusting 38 5.4 2.0
2014-Dec-17 11:30 290 25 gusting 35 5.4 2.0
2014-Dec-17 11:00 290 25 gusting 35 5.4 2.0
2014-Dec-17 10:33 290 24 gusting 38 5.4 2.0
2014-Dec-17 10:30 290 24 5.4 2.0
2014-Dec-17 10:01 290 22 gusting 32 5.4 3.0
2014-Dec-17 10:00 290 23 5.4 2.0
2014-Dec-17 09:30 290 24 gusting 38 5.4 2.0
2014-Dec-17 09:01 280 22 gusting 34 5.4 2.0
2014-Dec-17 09:00 280 22 5.4 2.0
2014-Dec-17 08:30 290 26 gusting 37 5.4 2.0
2014-Dec-17 08:00 280 26 gusting 45 5.4 2.0
2014-Dec-17 07:30 280 27 gusting 44 5.4 3.0 Showers in the vicinity.
2014-Dec-17 07:05 290 26 gusting 36 5.4 3.0 Showers in the vicinity.
2014-Dec-17 07:00 290 27 5.4 3.0 Showers in the vicinity.
2014-Dec-17 06:30 280 31 gusting 45 5.4 3.0 Showers in the vicinity.
2014-Dec-17 06:00 270 33 gusting 45 5.4 4.0 Light snow showers.
2014-Dec-17 05:30 270 34 gusting 44 5.4 3.0 Light snow showers.
2014-Dec-17 05:00 270 31 gusting 43 5.4 4.0 Light snow showers.
2014-Dec-17 04:30 280 29 gusting 43 5.4 4.0 Showers in the vicinity.
2014-Dec-17 04:00 280 31 gusting 43 5.4 3.0 Showers in the vicinity.
2014-Dec-17 03:30 280 33 gusting 47 5.4 3.0 Showers in the vicinity.
2014-Dec-17 03:00 270 33 gusting 43 5.4 3.0
2014-Dec-17 02:30 280 27 gusting 38 5.4 3.0
2014-Dec-17 02:00 280 29 gusting 42 5.4 3.0
2014-Dec-17 01:30 280 27 gusting 40 5.4 4.0
2014-Dec-17 01:00 270 30 gusting 42 5.4 3.0
2014-Dec-17 00:30 280 26 gusting 38 5.4 3.0
2014-Dec-17 00:08 280 27 gusting 38 5.4 3.0
2014-Dec-17 00:00 270 29 5.4 3.0
2014-Dec-16 23:30 260 27 gusting 38 5.4 3.0
2014-Dec-16 23:00 270 27 gusting 40 5.4 3.0
2014-Dec-16 22:30 270 27 gusting 40 5.4 2.0
2014-Dec-16 22:02 280 26 gusting 36 5.4 3.0
2014-Dec-16 22:00 270 27 5.4 3.0
2014-Dec-16 21:30 270 27 gusting 38 5.4 3.0
2014-Dec-16 21:00 270 25 gusting 35 5.4 3.0
2014-Dec-16 20:30 280 24 gusting 34 5.4 3.0
2014-Dec-16 20:00 280 24 gusting 36 5.4 3.0
2014-Dec-16 19:31 280 24 gusting 34 5.4 3.0
2014-Dec-16 19:30 280 24 5.4 3.0
2014-Dec-16 19:06 280 23 gusting 33 5.4 3.0
2014-Dec-16 19:00 280 24 5.4 3.0
2014-Dec-16 18:30 270 25 gusting 36 5.4 3.0
2014-Dec-16 18:00 280 24 gusting 35 5.4 3.0
2014-Dec-16 17:30 280 25 gusting 39 5.4 4.0